GW3577 Weather Reports


Display with metric or nautical units.
time (UTC)temp
F
wind
direction
speed
MPH
gust
MPH
rain 1hr
in
rain 24hr
in
rain mn
in
humidity
%
barometer
mb
20260901043910 71 351 0.0 0.0 0.00 0.00 0.00 97 1021.0
20260901043406 71 351 0.0 0.0 0.00 0.00 0.00 96 1021.0
20260901042900 71 351 0.0 0.0 0.00 0.00 0.00 95 1021.0
20260901042355 71 351 0.0 0.0 0.00 0.00 0.00 95 1021.0
20260901041851 71 351 0.0 0.0 0.00 0.00 0.00 95 1021.0
20260901041345 71 351 0.0 0.0 0.00 0.00 0.00 95 1021.0
20260901040840 71 351 0.0 0.0 0.00 0.00 0.00 95 1021.0
20260901040339 71 351 0.0 0.0 0.00 0.00 0.00 95 1021.3
20260901035838 71 351 0.0 0.0 0.00 0.01 0.01 95 1021.3
20260901035337 71 351 0.0 0.0 0.00 0.01 0.01 95 1021.3
20260901034836 72 351 0.0 0.0 0.00 0.01 0.01 94 1021.3
20260901034332 72 351 0.0 0.0 0.00 0.01 0.01 93 1021.3
20260901033831 72 351 0.0 0.0 0.00 0.01 0.01 92 1021.3
20260901033330 72 351 0.0 0.0 0.00 0.01 0.01 93 1021.3
20260901032829 72 351 0.0 0.0 0.00 0.01 0.01 94 1021.3
20260901032328 72 351 0.0 0.0 0.00 0.01 0.01 93 1021.3
20260901031823 72 351 1.0 2.0 0.00 0.01 0.01 93 1021.3
20260901031319 72 351 0.0 2.0 0.00 0.01 0.01 94 1021.3
20260901030819 72 351 0.0 0.0 0.00 0.01 0.01 94 1021.3
20260901030314 72 351 0.0 0.0 0.00 0.01 0.01 94 1021.3
20260901025813 73 351 0.0 2.0 0.00 0.01 0.01 94 1021.3
20260901025308 73 351 0.0 0.0 0.00 0.01 0.01 93 1021.3
20260901024803 73 351 0.0 0.0 0.00 0.01 0.01 92 1021.3
20260901024303 73 351 0.0 0.0 0.00 0.01 0.01 92 1021.3
20260901023800 74 351 0.0 0.0 0.00 0.01 0.01 92 1021.3
20260901023255 74 351 0.0 0.0 0.00 0.01 0.01 91 1021.3
20260901022751 74 351 0.0 0.0 0.00 0.01 0.01 91 1021.3
20260901022247 74 351 0.0 0.0 0.00 0.01 0.01 90 1021.3
20260901021741 74 351 0.0 0.0 0.00 0.01 0.01 91 1021.3
20260901021237 74 351 0.0 0.0 0.00 0.01 0.01 91 1021.3
20260901020732 74 351 1.0 3.0 0.00 0.01 0.01 92 1021.3
20260901020228 74 351 0.0 0.0 0.00 0.01 0.01 92 1021.0
20260901015723 74 351 0.0 0.0 0.00 0.01 0.01 91 1021.0
20260901015219 74 351 0.0 2.0 0.00 0.01 0.01 92 1021.0
20260901014718 74 351 3.0 4.0 0.00 0.01 0.01 92 1021.0
20260901014214 74 351 0.0 1.0 0.00 0.01 0.01 91 1021.0
20260901013709 75 351 0.0 0.0 0.00 0.01 0.01 90 1021.0
20260901013205 75 351 0.0 0.0 0.00 0.01 0.01 90 1021.0
20260901012700 76 351 0.0 0.0 0.00 0.01 0.01 89 1021.0
20260901012155 75 351 1.0 3.0 0.00 0.01 0.01 90 1021.0
20260901011651 76 351 0.0 0.0 0.00 0.01 0.01 89 1020.6
20260901011150 76 351 1.0 3.0 0.00 0.01 0.01 89 1020.6
20260901010645 76 351 0.0 0.0 0.00 0.01 0.01 89 1020.6
20260901010145 76 351 0.0 0.0 0.00 0.01 0.01 88 1020.6
20260901005643 76 351 0.0 0.0 0.00 0.01 0.01 88 1020.6
20260901005139 77 351 0.0 0.0 0.00 0.01 0.01 86 1020.3
20260901004638 78 351 0.0 0.0 0.00 0.01 0.01 85 1020.3
20260901004133 78 351 0.0 0.0 0.00 0.01 0.01 85 1020.3
20260901003623 78 351 0.0 0.0 0.00 0.01 0.01 84 1020.3
20260901003122 78 351 0.0 1.0 0.00 0.01 0.01 82 1020.3
20260901002621 78 351 0.0 0.0 0.00 0.01 0.01 83 1020.3
20260901002116 78 351 0.0 1.0 0.00 0.01 0.01 84 1020.3
20260901001611 78 351 0.0 0.0 0.00 0.01 0.01 83 1020.3
20260901001107 79 351 0.0 0.0 0.00 0.01 0.01 82 1020.0
20260901000601 79 351 0.0 0.0 0.00 0.01 0.01 81 1020.0
20260901000057 80 351 0.0 0.0 0.00 0.01 0.01 79 1020.0
20260831235550 80 351 0.0 0.0 0.00 0.01 0.01 78 1020.0
20260831235046 81 351 0.0 0.0 0.00 0.01 0.01 74 1020.0
20260831234540 82 351 0.0 0.0 0.00 0.01 0.01 73 1020.0
20260831234036 82 351 1.0 3.0 0.00 0.01 0.01 73 1020.0
20260831233531 82 351 0.0 2.0 0.00 0.01 0.01 73 1020.0
20260831233027 82 351 0.0 0.0 0.00 0.01 0.01 73 1020.0
20260831232522 82 351 0.0 3.0 0.00 0.01 0.01 72 1020.0
20260831232018 82 351 1.0 4.0 0.00 0.01 0.01 71 1020.0
20260831231514 83 2 0.0 4.0 0.00 0.01 0.01 71 1020.0
20260831231010 83 14 4.0 8.0 0.00 0.01 0.01 69 1020.0
20260831230505 84 5 3.0 5.0 0.00 0.01 0.01 69 1020.0
20260831230004 84 17 4.0 5.0 0.00 0.01 0.01 68 1020.0
20260831225500 84 1 7.0 10.0 0.00 0.01 0.01 68 1020.0
20260831225000 84 2 5.0 6.0 0.00 0.01 0.01 67 1020.0
20260831224455 85 16 3.0 5.0 0.00 0.01 0.01 67 1020.0
20260831223950 85 4 4.0 6.0 0.00 0.01 0.01 66 1020.0
20260831223446 85 5 5.0 8.0 0.00 0.01 0.01 65 1020.0
20260831222942 85 10 4.0 6.0 0.00 0.01 0.01 65 1020.0
20260831222438 86 41 3.0 7.0 0.00 0.01 0.01 64 1020.0
20260831221937 87 27 2.0 4.0 0.00 0.01 0.01 63 1020.0
20260831221433 87 8 5.0 7.0 0.00 0.01 0.01 63 1020.0
20260831220928 87 78 1.0 5.0 0.00 0.01 0.01 63 1020.0
20260831220424 88 11 2.0 7.0 0.00 0.01 0.01 62 1019.5
20260831215919 89 355 4.0 6.0 0.00 0.01 0.01 62 1019.5
20260831215414 90 3 5.0 7.0 0.00 0.01 0.01 59 1019.5
20260831214911 90 107 4.0 6.0 0.00 0.01 0.01 56 1019.5
20260831214408 91 52 0.0 3.0 0.00 0.01 0.01 55 1019.5
20260831213903 91 71 3.0 4.0 0.00 0.01 0.01 55 1019.5
20260831213400 90 121 1.0 2.0 0.00 0.01 0.01 56 1019.5
20260831212855 90 121 2.0 3.0 0.00 0.01 0.01 57 1019.5
20260831212351 90 121 0.0 2.0 0.00 0.01 0.01 58 1019.5
20260831211850 90 121 2.0 3.0 0.00 0.01 0.01 58 1019.5
20260831211350 90 139 2.0 3.0 0.00 0.01 0.01 58 1019.5
20260831210850 90 139 3.0 4.0 0.00 0.01 0.01 58 1019.2
20260831210346 90 139 2.0 3.0 0.00 0.01 0.01 58 1019.2
20260831205841 90 91 4.0 5.0 0.00 0.01 0.01 57 1019.2
20260831205337 91 127 3.0 4.0 0.00 0.01 0.01 56 1019.2
20260831204832 91 127 4.0 5.0 0.00 0.01 0.01 53 1019.2
20260831204331 92 93 4.0 5.0 0.00 0.01 0.01 54 1019.2
20260831203830 93 15 0.0 0.0 0.00 0.01 0.01 53 1019.2
20260831203325 91 127 3.0 5.0 0.00 0.01 0.01 55 1019.2
20260831202823 90 85 3.0 6.0 0.00 0.01 0.01 57 1019.5
20260831202318 91 119 4.0 6.0 0.00 0.01 0.01 55 1019.5
20260831201812 91 133 1.0 4.0 0.00 0.01 0.01 54 1019.5
20260831201311 91 133 2.0 3.0 0.00 0.01 0.01 53 1019.5
20260831200807 91 133 2.0 3.0 0.00 0.01 0.01 54 1019.5
20260831200301 91 133 0.0 2.0 0.00 0.01 0.01 54 1019.5
20260831195757 91 133 1.0 3.0 0.00 0.01 0.01 53 1019.5
20260831195253 91 133 2.0 3.0 0.00 0.01 0.01 53 1019.5
20260831194747 91 133 1.0 2.0 0.00 0.01 0.01 52 1019.5
20260831194244 90 133 1.0 3.0 0.00 0.01 0.01 53 1019.5
20260831193737 91 133 4.0 5.0 0.00 0.01 0.01 55 1019.5
20260831193233 91 167 3.0 4.0 0.00 0.01 0.01 53 1019.5
20260831192733 92 4 0.0 0.0 0.00 0.01 0.01 52 1019.5
20260831192228 93 4 0.0 0.0 0.00 0.01 0.01 50 1019.5
20260831191724 93 4 1.0 4.0 0.00 0.01 0.01 50 1020.0
20260831191220 94 89 2.0 4.0 0.00 0.01 0.01 49 1020.0
20260831190715 93 89 0.0 4.0 0.00 0.01 0.01 50 1020.0
20260831190214 92 90 0.0 2.0 0.00 0.01 0.01 52 1020.0
20260831185709 91 126 3.0 4.0 0.00 0.01 0.01 56 1020.0
20260831185205 91 168 4.0 6.0 0.00 0.01 0.01 57 1020.0
20260831184704 92 122 5.0 7.0 0.00 0.01 0.01 55 1020.0
20260831184200 92 121 2.0 6.0 0.00 0.01 0.01 52 1020.0
20260831183659 92 114 2.0 5.0 0.00 0.01 0.01 54 1019.5
20260831183154 91 128 6.0 8.0 0.00 0.01 0.01 56 1020.0
20260831182653 92 127 4.0 7.0 0.00 0.01 0.01 55 1020.0
20260831182149 92 105 7.0 9.0 0.00 0.01 0.01 53 1020.0
20260831181644 92 115 5.0 7.0 0.00 0.01 0.01 53 1020.0
20260831181143 92 132 6.0 8.0 0.00 0.01 0.01 55 1020.0
20260831180639 93 116 5.0 7.0 0.00 0.01 0.01 55 1020.0
20260831180133 91 120 5.0 8.0 0.00 0.01 0.01 57 1020.0
20260831175628 91 132 6.0 9.0 0.00 0.01 0.01 58 1020.0
20260831175125 91 118 5.0 6.0 0.00 0.01 0.01 54 1020.0
20260831174625 91 130 3.0 5.0 0.00 0.01 0.01 57 1020.0
20260831174120 91 113 5.0 7.0 0.00 0.01 0.01 58 1020.0
20260831173618 90 121 5.0 6.0 0.00 0.01 0.01 60 1020.0
20260831173115 89 143 4.0 5.0 0.00 0.01 0.01 62 1020.0
20260831172614 89 123 6.0 8.0 0.00 0.01 0.01 64 1020.3
20260831172114 88 151 5.0 7.0 0.00 0.01 0.01 66 1020.3
20260831171609 88 135 4.0 4.0 0.00 0.01 0.01 66 1020.3
20260831171107 88 135 6.0 7.0 0.00 0.01 0.01 64 1020.3
20260831170604 88 107 4.0 5.0 0.00 0.01 0.01 66 1020.6
20260831170101 86 121 4.0 5.0 0.00 0.01 0.01 67 1020.6
20260831165600 84 95 3.0 5.0 0.00 0.01 0.01 71 1021.0
20260831165057 85 108 1.0 5.0 0.00 0.01 0.01 72 1021.0
20260831164553 84 95 0.0 1.0 0.00 0.01 0.01 71 1021.0
20260831164048 84 95 0.0 0.0 0.00 0.01 0.01 70 1021.3
20260831163543 84 95 3.0 4.0 0.00 0.01 0.01 68 1021.3
20260831163039 86 99 4.0 5.0 0.00 0.01 0.01 65 1021.3
20260831162537 89 97 2.0 4.0 0.00 0.01 0.01 58 1021.0
20260831162036 89 97 0.0 0.0 0.00 0.01 0.01 56 1021.0
20260831161532 90 97 0.0 2.0 0.00 0.01 0.01 55 1021.0
20260831161028 91 97 0.0 0.0 0.00 0.01 0.01 55 1021.0
20260831160527 93 108 6.0 9.0 0.00 0.01 0.01 52 1020.6
20260831160023 93 126 1.0 3.0 0.00 0.01 0.01 51 1020.6
20260831155517 93 106 4.0 9.0 0.00 0.01 0.01 52 1020.3
20260831155012 91 203 0.0 1.0 0.00 0.01 0.01 54 1020.6
20260831154509 91 196 4.0 6.0 0.00 0.01 0.01 54 1020.6
20260831154009 92 110 4.0 6.0 0.00 0.01 0.01 53 1020.6
20260831153508 91 71 0.0 2.0 0.00 0.01 0.01 53 1020.6
20260831153006 91 208 0.0 4.0 0.00 0.01 0.01 55 1020.6
20260831152500 90 219 2.0 4.0 0.00 0.01 0.01 55 1020.6
20260831151955 90 219 3.0 4.0 0.00 0.01 0.01 58 1021.0
20260831151455 90 198 3.0 5.0 0.00 0.01 0.01 55 1021.0
20260831150950 90 198 2.0 4.0 0.00 0.01 0.01 58 1020.6
20260831150445 90 198 3.0 4.0 0.00 0.01 0.01 58 1021.0
20260831145945 90 236 1.0 2.0 0.00 0.01 0.01 60 1020.6
20260831145441 89 236 4.0 4.0 0.00 0.01 0.01 60 1020.6
20260831144936 88 120 1.0 3.0 0.00 0.01 0.01 60 1020.6
20260831144432 88 120 0.0 2.0 0.00 0.01 0.01 59 1020.6
20260831143927 87 120 1.0 2.0 0.00 0.01 0.01 62 1021.0
20260831143422 87 120 2.0 4.0 0.00 0.01 0.01 65 1020.6
20260831142918 86 120 0.0 2.0 0.00 0.01 0.01 67 1021.0
20260831142414 85 120 3.0 4.0 0.00 0.01 0.01 68 1021.0
20260831141908 85 213 0.0 0.0 0.00 0.01 0.01 69 1021.0
20260831141402 85 177 0.0 2.0 0.00 0.01 0.01 70 1021.0
20260831140857 84 126 1.0 4.0 0.00 0.01 0.01 70 1021.0
20260831140351 84 122 4.0 6.0 0.00 0.01 0.01 71 1021.0
20260831135850 83 122 2.0 4.0 0.00 0.01 0.01 72 1021.0
20260831135345 83 97 1.0 3.0 0.00 0.01 0.01 71 1021.0
20260831134840 83 351 0.0 0.0 0.00 0.01 0.01 72 1021.0
20260831134337 82 351 0.0 0.0 0.00 0.01 0.01 74 1021.3
20260831133836 81 351 0.0 0.0 0.00 0.01 0.01 75 1021.3
20260831133335 80 351 0.0 0.0 0.00 0.01 0.01 76 1021.3
20260831132831 80 351 0.0 0.0 0.00 0.01 0.01 77 1021.3
20260831132326 79 351 0.0 0.0 0.00 0.01 0.01 80 1021.7
20260831131826 78 351 0.0 0.0 0.00 0.01 0.01 82 1021.3
20260831131322 78 351 0.0 0.0 0.00 0.01 0.01 84 1021.3
20260831130817 77 351 0.0 0.0 0.00 0.01 0.01 86 1021.3
20260831130312 77 351 0.0 0.0 0.00 0.01 0.01 86 1021.7
20260831125812 75 351 0.0 0.0 0.00 0.01 0.01 89 1021.7
20260831125307 74 351 0.0 0.0 0.00 0.01 0.01 92 1021.7
20260831124807 74 14 0.0 0.0 0.00 0.00 0.00 92 1021.7
20260831124304 74 14 0.0 0.0 0.00 0.00 0.00 92 1021.7
20260831123803 73 14 0.0 0.0 0.00 0.00 0.00 93 1021.7
20260831123302 73 14 0.0 0.0 0.00 0.00 0.00 94 1021.7
20260831122757 73 14 0.0 0.0 0.00 0.00 0.00 94 1021.3
20260831122253 73 14 0.0 0.0 0.00 0.00 0.00 95 1021.7
20260831121752 73 14 0.0 0.0 0.00 0.00 0.00 94 1021.7
20260831121249 73 14 0.0 0.0 0.00 0.00 0.00 95 1021.3
20260831120744 72 14 0.0 0.0 0.00 0.00 0.00 96 1021.3
20260831120238 72 14 0.0 0.0 0.00 0.00 0.00 97 1021.3
20260831115734 71 14 0.0 0.0 0.00 0.00 0.00 97 1021.7
20260831115230 71 14 0.0 0.0 0.00 0.00 0.00 97 1021.3
20260831114729 70 14 0.0 0.0 0.00 0.00 0.00 97 1021.3
20260831114229 69 14 0.0 0.0 0.00 0.00 0.00 98 1021.7
20260831113724 69 14 0.0 0.0 0.00 0.00 0.00 98 1021.7
20260831113219 69 14 0.0 0.0 0.00 0.00 0.00 98 1021.3
20260831112718 68 14 0.0 0.0 0.00 0.00 0.00 98 1021.3
20260831112213 68 14 0.0 0.0 0.00 0.00 0.00 98 1021.3
20260831111709 68 14 0.0 0.0 0.00 0.00 0.00 99 1021.3
20260831111205 68 14 0.0 0.0 0.00 0.00 0.00 99 1021.3
20260831110700 68 14 0.0 0.0 0.00 0.00 0.00 99 1021.3
20260831110155 67 14 0.0 0.0 0.00 0.00 0.00 98 1021.3
20260831105654 67 14 0.0 0.0 0.00 0.00 0.00 98 1021.0
20260831105149 67 14 0.0 0.0 0.00 0.00 0.00 99 1021.0
20260831104644 67 14 0.0 0.0 0.00 0.00 0.00 99 1021.0
20260831104141 67 14 0.0 0.0 0.00 0.00 0.00 99 1021.0
20260831103636 67 14 0.0 0.0 0.00 0.00 0.00 99 1021.0
20260831103132 67 14 0.0 0.0 0.00 0.00 0.00 99 1021.0
20260831102626 67 14 0.0 0.0 0.00 0.00 0.00 99 1021.0
20260831102121 67 14 0.0 0.0 0.00 0.00 0.00 99 1021.0
20260831101621 67 14 0.0 0.0 0.00 0.00 0.00 99 1021.0
20260831101117 67 14 0.0 0.0 0.00 0.00 0.00 99 1021.0
20260831100613 67 14 0.0 0.0 0.00 0.00 0.00 99 1021.0
20260831100109 67 14 0.0 0.0 0.00 0.00 0.00 99 1021.0
20260831095607 67 14 0.0 0.0 0.00 0.00 0.00 99 1021.0
20260831095102 67 14 0.0 0.0 0.00 0.00 0.00 99 1021.0
20260831094558 67 14 0.0 0.0 0.00 0.00 0.00 99 1021.0
20260831094054 67 14 0.0 0.0 0.00 0.00 0.00 99 1021.0
20260831093548 67 14 0.0 0.0 0.00 0.00 0.00 98 1021.0
20260831093039 67 14 0.0 0.0 0.00 0.00 0.00 98 1021.0
20260831092534 67 14 0.0 0.0 0.00 0.00 0.00 98 1021.0
20260831092031 66 14 0.0 0.0 0.00 0.00 0.00 98 1021.0
20260831091530 67 14 0.0 0.0 0.00 0.00 0.00 98 1021.0
20260831091026 67 14 0.0 0.0 0.00 0.00 0.00 97 1021.0
20260831090521 67 14 0.0 0.0 0.00 0.00 0.00 98 1021.0
20260831090017 67 14 0.0 0.0 0.00 0.00 0.00 98 1021.0
20260831085512 67 14 0.0 0.0 0.00 0.00 0.00 98 1021.0
20260831085007 67 14 0.0 0.0 0.00 0.00 0.00 98 1021.0
20260831084503 67 14 0.0 0.0 0.00 0.00 0.00 98 1021.0
20260831083959 67 14 0.0 0.0 0.00 0.00 0.00 98 1021.0
20260831083454 67 14 0.0 0.0 0.00 0.00 0.00 97 1021.0
20260831082953 67 14 0.0 0.0 0.00 0.00 0.00 98 1021.0
20260831082448 67 14 0.0 0.0 0.00 0.00 0.00 97 1021.0
20260831081942 67 14 0.0 0.0 0.00 0.00 0.00 98 1021.0
20260831081439 67 14 0.0 0.0 0.00 0.00 0.00 98 1021.0
20260831080934 67 14 0.0 0.0 0.00 0.00 0.00 98 1021.0
20260831080429 67 14 0.0 0.0 0.00 0.00 0.00 98 1021.0
20260831075924 67 14 0.0 0.0 0.00 0.00 0.00 98 1021.0
20260831075420 67 14 0.0 0.0 0.00 0.00 0.00 97 1021.0
20260831074915 67 14 0.0 0.0 0.00 0.00 0.00 97 1021.0
20260831074409 67 14 0.0 0.0 0.00 0.00 0.00 97 1021.0
20260831073903 68 14 0.0 0.0 0.00 0.00 0.00 97 1021.0
20260831073403 67 14 0.0 0.0 0.00 0.00 0.00 97 1021.0
20260831072858 68 14 0.0 0.0 0.00 0.00 0.00 96 1021.0
20260831072354 68 14 0.0 0.0 0.00 0.00 0.00 96 1020.6
20260831071850 68 14 0.0 0.0 0.00 0.00 0.00 96 1021.0
20260831071349 68 14 0.0 0.0 0.00 0.00 0.00 96 1021.0
20260831070843 68 14 0.0 0.0 0.00 0.00 0.00 96 1021.0
20260831070342 68 14 0.0 0.0 0.00 0.00 0.00 96 1020.6
20260831065842 68 14 0.0 0.0 0.00 0.00 0.00 96 1021.0
20260831065339 68 14 0.0 0.0 0.00 0.00 0.00 96 1020.6
20260831064835 68 14 0.0 0.0 0.00 0.00 0.00 96 1021.0
20260831064330 68 14 0.0 0.0 0.00 0.00 0.00 96 1021.0
20260831063826 68 14 0.0 0.0 0.00 0.00 0.00 96 1021.0
20260831063321 68 14 0.0 0.0 0.00 0.00 0.00 96 1021.0
20260831062820 68 14 0.0 0.0 0.00 0.00 0.00 96 1021.0
20260831062315 68 14 0.0 0.0 0.00 0.00 0.00 96 1021.0
20260831061815 68 14 0.0 0.0 0.00 0.00 0.00 96 1021.0
20260831061314 68 14 0.0 0.0 0.00 0.00 0.00 96 1021.0
20260831060810 68 14 0.0 0.0 0.00 0.00 0.00 96 1021.0
20260831060305 68 14 0.0 0.0 0.00 0.00 0.00 96 1021.0
20260831055804 68 14 0.0 0.0 0.00 0.00 0.00 96 1021.0
20260831055300 68 14 0.0 0.0 0.00 0.00 0.00 95 1021.0
20260831054800 68 14 0.0 0.0 0.00 0.00 0.00 95 1021.0
20260831054255 68 14 0.0 0.0 0.00 0.00 0.00 94 1021.3
20260831053754 69 14 0.0 0.0 0.00 0.00 0.00 94 1021.3
20260831053253 69 14 0.0 0.0 0.00 0.00 0.00 94 1021.3
20260831052748 69 14 0.0 0.0 0.00 0.00 0.00 94 1021.3
20260831052247 69 14 0.0 0.0 0.00 0.00 0.00 94 1021.3
20260831051745 69 14 0.0 0.0 0.00 0.00 0.00 93 1021.3
20260831051244 69 14 0.0 0.0 0.00 0.00 0.00 94 1021.3
20260831050739 69 14 0.0 0.0 0.00 0.00 0.00 92 1021.3
20260831050237 70 14 0.0 0.0 0.00 0.00 0.00 91 1021.3
20260831045732 70 14 0.0 0.0 0.00 0.00 0.00 92 1021.3
20260831045227 70 14 0.0 0.0 0.00 0.00 0.00 91 1021.3
20260831044722 71 14 0.0 0.0 0.00 0.00 0.00 90 1021.7